Location: *
(49.1466°N, 1.6216°E)
Time: 01:21:35
(UTC+00:00)

Cosmos 1943 Rocket - Pass Details

Date: 25 September 2023
Orbit: 812 x 843 km, 71.0° (Epoch: 01 December)

Event Time Altitude Azimuth Distance (km) Brightness Sun altitude
Rises 21:59:21 0° 323° (NW) 3,411 6.3 -36.8°
Reaches altitude 10° 22:02:09 10° 312° (NW) 2,470 5.3 -37.1°
Enters shadow 22:05:07 23° 284° (WNW) 1,732 4.1 -37.3°
